• In Österreich
  • Länderverzeichnis
  • Für 7 Tage
  • Wassertemperatur
  • Satellitenkarten
  • Wetterkarte
  • News
  • Widgets
  • user-avatar
    Anmelden

    Stündliche Wetter Tekkeköy

    Heute, 19 November, Sonntag

    Zeit Temperatur Niederschläge Wind Luftdruck Luftfeuchtigkeit
    00:00 +16°C° 0 mm 2 m/S 752 mmHg 43%
    01:00 +16°C° 0 mm 3 m/S 752 mmHg 44%
    02:00 +17°C° 0 mm 4 m/S 751 mmHg 42%
    03:00 +15°C° 0 mm 4 m/S 751 mmHg 44%
    04:00 +15°C° 0 mm 4 m/S 751 mmHg 46%
    05:00 +14°C° 0 mm 3 m/S 751 mmHg 48%
    06:00 +16°C° 0 mm 3 m/S 751 mmHg 46%
    07:00 +17°C° 0 mm 3 m/S 751 mmHg 45%
    08:00 +18°C° 0 mm 3 m/S 751 mmHg 43%
    09:00 +19°C° 0 mm 3 m/S 751 mmHg 38%
    10:00 +21°C° 0 mm 2 m/S 751 mmHg 34%
    11:00 +24°C° 0 mm 2 m/S 750 mmHg 29%
    12:00 +25°C° 0 mm 3 m/S 750 mmHg 29%
    13:00 +25°C° 0 mm 3 m/S 750 mmHg 29%
    14:00 +25°C° 0 mm 4 m/S 749 mmHg 29%
    15:00 +22°C° 0,1 mm 4 m/S 749 mmHg 34%
    16:00 +20°C° 0,1 mm 3 m/S 749 mmHg 40%
    17:00 +18°C° 0,1 mm 3 m/S 749 mmHg 45%
    18:00 +18°C° 0,2 mm 3 m/S 749 mmHg 47%
    19:00 +18°C° 0,2 mm 4 m/S 749 mmHg 48%
    20:00 +17°C° 0,2 mm 4 m/S 750 mmHg 50%
    21:00 +17°C° 0,2 mm 4 m/S 750 mmHg 52%
    22:00 +15°C° 0,2 mm 4 m/S 750 mmHg 55%
    23:00 +16°C° 0,2 mm 3 m/S 750 mmHg 57%

    Morgen, 20 November, Montag

    Zeit Temperatur Niederschläge Wind Luftdruck Luftfeuchtigkeit
    00:00 +16°C° 0,1 mm 3 m/S 750 mmHg 58%
    01:00 +14°C° 0,1 mm 3 m/S 750 mmHg 59%
    02:00 +14°C° 0,1 mm 3 m/S 750 mmHg 61%
    03:00 +14°C° 0,1 mm 3 m/S 750 mmHg 61%
    04:00 +14°C° 0,1 mm 4 m/S 750 mmHg 61%
    05:00 +13°C° 0,1 mm 4 m/S 750 mmHg 61%
    06:00 +14°C° 0 mm 4 m/S 750 mmHg 59%
    07:00 +15°C° 0 mm 5 m/S 750 mmHg 57%
    08:00 +15°C° 0 mm 5 m/S 749 mmHg 55%
    09:00 +17°C° 0 mm 5 m/S 749 mmHg 51%
    10:00 +19°C° 0 mm 5 m/S 749 mmHg 46%
    11:00 +20°C° 0 mm 5 m/S 749 mmHg 42%
    12:00 +21°C° 0 mm 5 m/S 748 mmHg 40%
    13:00 +21°C° 0 mm 5 m/S 748 mmHg 38%
    14:00 +22°C° 0 mm 4 m/S 747 mmHg 37%
    15:00 +21°C° 0,1 mm 4 m/S 747 mmHg 41%
    16:00 +19°C° 0,1 mm 3 m/S 747 mmHg 45%
    17:00 +18°C° 0,1 mm 3 m/S 747 mmHg 50%
    18:00 +17°C° 0,3 mm 3 m/S 747 mmHg 55%
    19:00 +17°C° 0,3 mm 3 m/S 746 mmHg 60%
    20:00 +16°C° 0,3 mm 3 m/S 746 mmHg 65%
    21:00 +16°C° 0,2 mm 3 m/S 746 mmHg 66%
    22:00 +14°C° 0,2 mm 3 m/S 746 mmHg 67%
    23:00 +14°C° 0,2 mm 3 m/S 745 mmHg 68%

    übermorgen, 21 November, Dienstag

    Zeit Temperatur Niederschläge Wind Luftdruck Luftfeuchtigkeit
    00:00 +14°C° 0 mm 3 m/S 745 mmHg 68%
    01:00 +14°C° 0 mm 3 m/S 745 mmHg 68%
    02:00 +13°C° 0 mm 3 m/S 745 mmHg 68%
    03:00 +13°C° 0,4 mm 3 m/S 745 mmHg 71%
    04:00 +13°C° 0,4 mm 3 m/S 744 mmHg 74%
    05:00 +12°C° 0,4 mm 3 m/S 744 mmHg 77%
    06:00 +12°C° 1,5 mm 4 m/S 745 mmHg 82%
    07:00 +12°C° 1,5 mm 5 m/S 745 mmHg 87%
    08:00 +10°C° 1,5 mm 6 m/S 745 mmHg 92%
    09:00 +10°C° 3,8 mm 7 m/S 745 mmHg 90%
    10:00 +9°C° 3,8 mm 8 m/S 745 mmHg 88%
    11:00 +7°C° 3,8 mm 9 m/S 746 mmHg 86%
    12:00 +7°C° 3,3 mm 9 m/S 746 mmHg 87%
    13:00 +6°C° 3,3 mm 9 m/S 747 mmHg 89%
    14:00 +6°C° 3,3 mm 9 m/S 747 mmHg 90%
    15:00 +6°C° 1,7 mm 10 m/S 748 mmHg 89%
    16:00 +6°C° 1,7 mm 10 m/S 749 mmHg 87%
    17:00 +6°C° 1,7 mm 10 m/S 750 mmHg 86%
    18:00 +5°C° 1 mm 9 m/S 751 mmHg 86%
    19:00 +5°C° 1 mm 8 m/S 752 mmHg 87%
    20:00 +5°C° 1 mm 7 m/S 753 mmHg 87%
    21:00 +5°C° 1 mm 7 m/S 753 mmHg 86%
    22:00 +5°C° 1 mm 6 m/S 754 mmHg 85%
    23:00 +5°C° 1 mm 6 m/S 755 mmHg 84%

    22 November, Mittwoch

    Zeit Temperatur Niederschläge Wind Luftdruck Luftfeuchtigkeit
    00:00 +4°C° 0,3 mm 6 m/S 755 mmHg 83%
    01:00 +5°C° 0,3 mm 5 m/S 755 mmHg 83%
    02:00 +5°C° 0,3 mm 5 m/S 756 mmHg 82%
    03:00 +4°C° 0,1 mm 4 m/S 756 mmHg 82%
    04:00 +4°C° 0,1 mm 4 m/S 756 mmHg 82%
    05:00 +4°C° 0,1 mm 4 m/S 756 mmHg 82%
    06:00 +4°C° 0,1 mm 4 m/S 757 mmHg 81%
    07:00 +4°C° 0,1 mm 3 m/S 757 mmHg 80%
    08:00 +4°C° 0,1 mm 3 m/S 757 mmHg 78%
    09:00 +7°C° 0 mm 3 m/S 757 mmHg 75%
    10:00 +8°C° 0 mm 3 m/S 757 mmHg 71%
    11:00 +9°C° 0 mm 3 m/S 757 mmHg 67%
    12:00 +9°C° 0 mm 3 m/S 756 mmHg 66%
    13:00 +9°C° 0 mm 3 m/S 756 mmHg 66%
    14:00 +9°C° 0 mm 3 m/S 756 mmHg 65%
    15:00 +7°C° 0 mm 4 m/S 756 mmHg 68%
    16:00 +7°C° 0 mm 4 m/S 756 mmHg 70%
    17:00 +6°C° 0 mm 5 m/S 756 mmHg 73%
    18:00 +6°C° 0,2 mm 5 m/S 756 mmHg 73%
    19:00 +5°C° 0,2 mm 6 m/S 755 mmHg 73%
    20:00 +5°C° 0,2 mm 6 m/S 755 mmHg 73%
    21:00 +5°C° 0,6 mm 6 m/S 755 mmHg 76%
    22:00 +4°C° 0,6 mm 6 m/S 755 mmHg 78%
    23:00 +4°C° 0,6 mm 6 m/S 755 mmHg 80%

    23 November, Donnerstag

    Zeit Temperatur Niederschläge Wind Luftdruck Luftfeuchtigkeit
    00:00 +4°C° 0,5 mm 6 m/S 755 mmHg 81%
    01:00 +4°C° 0,5 mm 6 m/S 755 mmHg 83%
    02:00 +4°C° 0,5 mm 6 m/S 755 mmHg 84%
    03:00 +5°C° 0,7 mm 5 m/S 755 mmHg 86%
    04:00 +5°C° 0,7 mm 5 m/S 755 mmHg 87%
    05:00 +5°C° 0,7 mm 5 m/S 755 mmHg 88%
    06:00 +5°C° 0,5 mm 4 m/S 756 mmHg 88%
    07:00 +5°C° 0,5 mm 4 m/S 756 mmHg 89%
    08:00 +5°C° 0,5 mm 4 m/S 757 mmHg 89%
    09:00 +6°C° 0,4 mm 4 m/S 757 mmHg 88%
    10:00 +6°C° 0,4 mm 4 m/S 758 mmHg 87%
    11:00 +7°C° 0,4 mm 4 m/S 758 mmHg 87%
    12:00 +7°C° 0,2 mm 4 m/S 758 mmHg 86%
    13:00 +7°C° 0,2 mm 4 m/S 758 mmHg 85%
    14:00 +7°C° 0,2 mm 4 m/S 758 mmHg 84%
    15:00 +6°C° 0,1 mm 4 m/S 759 mmHg 85%
    16:00 +6°C° 0,1 mm 4 m/S 760 mmHg 86%
    17:00 +5°C° 0,1 mm 3 m/S 760 mmHg 88%
    18:00 +5°C° 0,1 mm 3 m/S 761 mmHg 88%
    19:00 +5°C° 0,1 mm 3 m/S 761 mmHg 88%
    20:00 +5°C° 0,1 mm 3 m/S 761 mmHg 88%
    21:00 +4°C° 0,1 mm 3 m/S 762 mmHg 88%
    22:00 +5°C° 0,1 mm 2 m/S 762 mmHg 88%
    23:00 +4°C° 0,1 mm 2 m/S 762 mmHg 88%

    24 November, Freitag

    Zeit Temperatur Niederschläge Wind Luftdruck Luftfeuchtigkeit
    00:00 +4°C° 0 mm 2 m/S 762 mmHg 88%
    01:00 +4°C° 0 mm 2 m/S 762 mmHg 88%
    02:00 +3°C° 0 mm 3 m/S 762 mmHg 88%
    03:00 +3°C° 0,1 mm 3 m/S 762 mmHg 87%
    04:00 +2°C° 0,1 mm 3 m/S 763 mmHg 87%
    05:00 +2°C° 0,1 mm 3 m/S 763 mmHg 86%
    06:00 +3°C° 0,1 mm 3 m/S 763 mmHg 85%
    07:00 +4°C° 0,1 mm 2 m/S 763 mmHg 83%
    08:00 +5°C° 0,1 mm 2 m/S 764 mmHg 82%
    09:00 +6°C° 0,1 mm 2 m/S 763 mmHg 80%
    10:00 +7°C° 0,1 mm 2 m/S 763 mmHg 78%
    11:00 +8°C° 0,1 mm 2 m/S 763 mmHg 75%
    12:00 +8°C° 0,1 mm 2 m/S 763 mmHg 76%
    13:00 +8°C° 0,1 mm 2 m/S 763 mmHg 77%
    14:00 +8°C° 0,1 mm 3 m/S 763 mmHg 77%
    15:00 +7°C° 0,1 mm 2 m/S 763 mmHg 80%
    16:00 +6°C° 0,1 mm 2 m/S 763 mmHg 83%
    17:00 +6°C° 0,1 mm 2 m/S 763 mmHg 86%
    18:00 +5°C° 0 mm 2 m/S 764 mmHg 87%
    19:00 +6°C° 0 mm 1 m/S 764 mmHg 88%
    20:00 +6°C° 0 mm 1 m/S 764 mmHg 89%
    21:00 +5°C° 0 mm 1 m/S 764 mmHg 89%
    22:00 +4°C° 0 mm 2 m/S 764 mmHg 89%
    23:00 +4°C° 0 mm 2 m/S 764 mmHg 89%
    Mehr zeigen